Voltar ao catálogo

SL-8 R/B

AtivoPO
NORAD 6829·ROCKET BODY·🇷🇺 Russia

Lançado Sep 14, 1973 de Plesetsk Cosmodrome

Loading…

Próximas Passagens (próximas 24 horas)

TLE

AtualizadoSource: Space-Track

Época: Sep 14, 2026, 09:51 UTC

1 06829U 73065B   26257.41098919  .00000049  00000-0  33753-4 0  9997
2 06829  82.9398  53.9642 0023801 139.0110 249.8039 13.77467578662615

Acompanhe SL-8 R/B em tempo real com AllMySat

Download on the App Store